Kankakee, IL

2:53 AM CST on December 11, 2019 (GMT -0600)
Greater Kankakee

Weather History for KIKK - October, 2019

Change the Weather History Date:

Thursday, October 31, 2019

  Actual Average Record
Temperature  
Mean Temperature 34 °F -  
Max Temperature 41 °F 60 °F 76 °F (1981)
Min Temperature 27 °F 38 °F 25 °F (1993)
Degree Days  
Heating Degree Days 30    
Moisture  
Dew Point 32 °F    
Average Humidity 95    
Maximum Humidity 100    
Minimum Humidity 84    
Precipitation  
Precipitation 0.23 in - - ()
Sea Level Pressure  
Sea Level Pressure 29.92 in    
Wind  
Wind Speed 14 mph (NW)    
Max Wind Speed 21 mph    
Max Gust Speed 29 mph    
Visibility 7 miles    
Events Rain , Snow    
Averages and records for this station are not official NWS values.
T = Trace of Precipitation, MM = Missing Value Source: NWS Daily Summary

Daily Weather History Graph

Daily Weather History Graph

Search for Another Location

Airport or City:

Astronomy

Oct. 31, 2019 Rise Set
Actual Time 7:20 AM CDT 5:48 PM CDT
Civil Twilight 6:52 AM CDT 6:17 PM CDT
Nautical Twilight 6:19 AM CDT 6:49 PM CDT
Astronomical Twilight 5:47 AM CDT 7:21 PM CDT
Moon 11:10 AM CDT (10/31) 8:43 PM CDT (10/31)
Length of Visible Light 11h 24m
Length of Day
10h 27m
Waxing Crescent, 16% of the Moon is Illuminated
Oct 31
Waxing Crescent
Nov 4
First Quarter
Nov 12
Full
Nov 19
Last Quarter
Nov 26
New

Hourly Weather History & Observations

Time (CDT) Temp. Windchill Dew Point Humidity Pressure Visibility Wind Dir Wind Speed Gust Speed Precip Events Conditions
12:15 AM 42.1 °F 35.7 °F 41.5 °F 98% 29.88 in 5.0 mi NNE 11.5 mph - N/A   Overcast
12:35 AM 42.1 °F 36.6 °F 41.4 °F 97% 29.87 in 3.0 mi NNE 9.2 mph - N/A   Overcast
12:55 AM 41.9 °F 35.4 °F 41.2 °F 97% 29.84 in 3.0 mi NNE 11.5 mph 20.7 mph N/A   Overcast
1:15 AM 41.9 °F 35.4 °F 41.2 °F 97% 29.86 in 5.0 mi North 11.5 mph - N/A Rain Rain
1:35 AM 41.5 °F 34.2 °F 41.0 °F 98% 29.84 in 5.0 mi North 13.8 mph - 0.09 in Rain Heavy Rain
1:55 AM 41.4 °F 34.7 °F 41.0 °F 99% 29.85 in 7.0 mi NNW 11.5 mph - 0.12 in Rain Light Rain
2:15 AM 38.1 °F 29.5 °F 37.6 °F 98% 29.84 in 10.0 mi NNW 15.0 mph - 0.03 in Rain Light Rain
2:35 AM 36.9 °F 29.1 °F 36.3 °F 98% 29.85 in 7.0 mi North 11.5 mph - 0.08 in Rain Heavy Rain
2:55 AM 36.7 °F 29.4 °F 36.1 °F 98% 29.84 in 10.0 mi North 10.4 mph - 0.09 in Rain Light Rain
3:15 AM 36.5 °F 27.8 °F 36.0 °F 98% 29.84 in 10.0 mi North 13.8 mph 18.4 mph 0.01 in Rain Rain
3:35 AM 36.0 °F 27.5 °F 35.6 °F 99% 29.83 in 10.0 mi NNW 12.7 mph - 0.01 in Rain Rain
3:55 AM 35.6 °F 26.6 °F 35.1 °F 98% 29.83 in 7.0 mi NNW 13.8 mph 23.0 mph 0.01 in Rain Light Rain
4:15 AM 35.1 °F 26.9 °F 34.7 °F 99% 29.82 in 10.0 mi NNW 11.5 mph - 0.01 in Rain Rain
4:35 AM 34.9 °F 24.6 °F 34.2 °F 97% 29.82 in 5.0 mi NNW 17.3 mph 25.3 mph 0.01 in Rain Light Rain
4:55 AM 34.7 °F 24.0 °F 34.0 °F 97% 29.82 in 5.0 mi NNW 18.4 mph 21.9 mph 0.01 in Rain Rain
5:15 AM 34.7 °F 24.0 °F 34.0 °F 97% 29.80 in 5.0 mi NNW 18.4 mph 24.2 mph N/A   Drizzle
5:35 AM 34.2 °F 24.4 °F 33.6 °F 98% 29.81 in 5.0 mi NNW 15.0 mph 20.7 mph N/A Rain Rain
5:55 AM 34.0 °F 23.8 °F 33.4 °F 98% 29.79 in 5.0 mi North 16.1 mph - N/A Rain Light Rain
6:15 AM 33.8 °F 24.3 °F 33.3 °F 98% 29.79 in 5.0 mi North 13.8 mph 21.9 mph N/A Rain Light Rain
6:35 AM 33.8 °F 23.5 °F 33.3 °F 98% 29.78 in 5.0 mi NNW 16.1 mph 21.9 mph N/A   Light Drizzle
6:55 AM 33.8 °F 24.3 °F 33.3 °F 98% 29.78 in 4.0 mi NNW 13.8 mph 20.7 mph N/A   Light Drizzle
7:15 AM 33.8 °F 24.3 °F 33.3 °F 98% 29.77 in 3.0 mi NNW 13.8 mph 21.9 mph N/A Rain Rain
7:35 AM 33.8 °F 24.3 °F 33.3 °F 98% 29.77 in 4.0 mi NNW 13.8 mph 23.0 mph N/A   Light Drizzle
7:55 AM 33.6 °F 24.6 °F 32.9 °F 97% 29.76 in 4.0 mi NNW 12.7 mph 21.9 mph N/A   Drizzle
8:15 AM 33.1 °F 23.4 °F 32.5 °F 98% 29.76 in 5.0 mi NNW 13.8 mph 19.6 mph N/A Rain Rain
8:35 AM 32.9 °F 23.2 °F 32.4 °F 98% 29.76 in 7.0 mi NNW 13.8 mph 18.4 mph N/A Rain Light Rain
8:55 AM 32.9 °F 23.7 °F 32.4 °F 98% 29.77 in 10.0 mi NW 12.7 mph 18.4 mph N/A   Drizzle
9:15 AM 32.4 °F 22.5 °F 32.0 °F 99% 29.77 in - NW 13.8 mph - N/A   Unknown
9:35 AM 32.2 °F 22.3 °F 32.0 °F 99% 29.77 in 2.5 mi NW 13.8 mph 17.3 mph N/A Snow Light Snow
9:55 AM 32.2 °F 21.8 °F 32.0 °F 99% 29.78 in 7.0 mi NW 15.0 mph 20.7 mph N/A Snow Snow
10:15 AM 32.0 °F 21.6 °F 32.0 °F 100% 29.78 in 5.0 mi NW 15.0 mph 24.2 mph N/A Rain Light Rain
10:35 AM 32.0 °F 21.2 °F 31.8 °F 99% 29.79 in 3.0 mi WNW 16.1 mph 23.0 mph N/A Rain Heavy Rain
10:55 AM 32.0 °F 20.5 °F 32.0 °F 100% 29.79 in 5.0 mi NW 18.4 mph 23.0 mph N/A Rain Light Rain
11:15 AM 32.0 °F 21.6 °F 31.8 °F 99% 29.79 in 3.0 mi NW 15.0 mph 26.5 mph N/A Rain Rain
11:35 AM 32.0 °F 20.5 °F 32.0 °F 100% 29.79 in 7.0 mi WNW 18.4 mph 28.8 mph N/A Rain Rain
11:55 AM 32.0 °F 20.5 °F 32.0 °F 100% 29.79 in 5.0 mi NW 18.4 mph 25.3 mph N/A Rain Heavy Rain
12:15 PM 32.0 °F 20.8 °F 32.0 °F 100% 29.80 in 4.0 mi NW 17.3 mph 26.5 mph N/A Rain Rain
12:35 PM 32.0 °F 21.2 °F 31.8 °F 99% 29.80 in 1.8 mi NW 16.1 mph 24.2 mph N/A   Overcast
12:55 PM 32.0 °F 21.6 °F 31.6 °F 99% 29.81 in 0.8 mi WNW 15.0 mph 27.6 mph N/A Snow Light Snow
1:35 PM 32.0 °F 19.8 °F 31.8 °F 99% 29.83 in 4.0 mi WNW 20.7 mph 27.6 mph N/A Rain Rain
1:55 PM 32.0 °F 20.8 °F 31.8 °F 99% 29.84 in 5.0 mi WNW 17.3 mph 25.3 mph N/A Rain Rain
2:15 PM 32.0 °F 20.5 °F 31.1 °F 96% 29.86 in 7.0 mi WNW 18.4 mph 26.5 mph N/A Rain Rain
2:35 PM 32.0 °F 21.2 °F 31.1 °F 96% 29.87 in 1.0 mi NW 16.1 mph 26.5 mph N/A   Overcast
2:55 PM 32.0 °F 21.2 °F 31.1 °F 96% 29.88 in 0.8 mi WNW 16.1 mph 23.0 mph N/A Snow Light Snow
3:15 PM 32.0 °F 21.2 °F 31.5 °F 98% 29.90 in 1.0 mi WNW 16.1 mph 21.9 mph N/A Snow Light Snow
3:35 PM 32.0 °F 21.6 °F 31.6 °F 99% 29.92 in 1.2 mi WNW 15.0 mph 24.2 mph N/A Snow Light Snow
3:55 PM 32.0 °F 22.1 °F 31.1 °F 96% 29.93 in 2.0 mi WNW 13.8 mph 25.3 mph N/A Rain Light Rain
4:15 PM 32.0 °F 19.8 °F 31.1 °F 96% 29.95 in 10.0 mi WNW 20.7 mph 28.8 mph N/A Rain Rain
4:35 PM 32.0 °F 20.5 °F 30.7 °F 95% 29.97 in 10.0 mi WNW 18.4 mph 27.6 mph N/A   Drizzle
4:55 PM 32.0 °F 19.8 °F 30.2 °F 93% 29.99 in 10.0 mi WNW 20.7 mph 27.6 mph N/A   Drizzle
5:15 PM 32.0 °F 20.1 °F 30.0 °F 92% 30.00 in 10.0 mi WNW 19.6 mph 25.3 mph N/A   Drizzle
5:55 PM 32.0 °F 20.5 °F 30.2 °F 93% 30.04 in 10.0 mi WNW 18.4 mph 25.3 mph N/A Rain Rain
6:15 PM 32.0 °F 20.1 °F 29.7 °F 91% 30.06 in 10.0 mi WNW 19.6 mph 24.2 mph N/A   Light Drizzle
6:35 PM 32.0 °F 19.8 °F 28.9 °F 88% 30.07 in 10.0 mi WNW 20.7 mph 27.6 mph N/A Rain Light Rain
6:55 PM 31.8 °F 21.0 °F 28.8 °F 88% 30.09 in 10.0 mi WNW 16.1 mph 21.9 mph N/A   Overcast
7:15 PM 31.3 °F 20.3 °F 28.0 °F 88% 30.12 in 10.0 mi West 16.1 mph 21.9 mph N/A   Mostly Cloudy
7:35 PM 30.7 °F 20.0 °F 26.8 °F 85% 30.12 in 10.0 mi West 15.0 mph 23.0 mph N/A   Scattered Clouds
7:55 PM 30.2 °F 20.2 °F 26.8 °F 87% 30.14 in 10.0 mi West 12.7 mph - N/A   Clear
8:15 PM 29.8 °F 18.0 °F 26.6 °F 88% 30.14 in 10.0 mi West 17.3 mph - N/A   Clear
8:35 PM 29.7 °F 17.8 °F 26.1 °F 86% 30.15 in 10.0 mi West 17.3 mph 23.0 mph N/A   Clear
8:55 PM 29.3 °F 18.2 °F 25.3 °F 85% 30.16 in 10.0 mi West 15.0 mph 21.9 mph N/A   Clear
9:15 PM 29.1 °F 17.5 °F 24.8 °F 84% 30.17 in 10.0 mi West 16.1 mph 21.9 mph N/A   Clear
9:35 PM 28.4 °F 17.0 °F 24.8 °F 86% 30.18 in 10.0 mi West 15.0 mph - N/A   Clear
9:55 PM 28.2 °F 17.2 °F 24.6 °F 86% 30.18 in 10.0 mi West 13.8 mph - N/A   Clear
10:15 PM 28.0 °F 16.5 °F 23.9 °F 84% 30.19 in 10.0 mi West 15.0 mph - N/A   Clear
10:35 PM 27.9 °F 17.3 °F 23.9 °F 85% 30.19 in 10.0 mi West 12.7 mph - N/A   Clear
10:55 PM 27.5 °F 16.8 °F 23.9 °F 86% 30.19 in 10.0 mi West 12.7 mph - N/A   Clear
11:15 PM 27.5 °F 18.0 °F 23.4 °F 84% 30.20 in 10.0 mi West 10.4 mph - N/A   Clear
11:35 PM 27.1 °F 18.2 °F 23.0 °F 84% 30.19 in 10.0 mi West 9.2 mph - N/A   Clear
11:55 PM 27.0 °F 18.0 °F 23.0 °F 85% 30.20 in 10.0 mi West 9.2 mph - N/A   Clear